Location: Ciserano
(45.5833°N, 9.6000°E)
Time: 13:22:43
(UTC+00:00)

Cosmos 2181 Rocket - Visible Passes

Search period start: 12 April 2021 00:00
Search period end: 22 April 2021 00:00
Orbit: 951 x 1015 km, 82.9° (Epoch: 11 April)

Date Brightness Start Highest point End Pass type
(mag) Time Alt. Az. Time Alt. Az. Time Alt. Az.
12 Apr 4.3 01:27:11 54° SE 01:28:20 64° E 01:34:35 10° NNE visible
12 Apr 5.3 03:12:02 19° W 03:14:23 24° WNW 03:19:21 10° NNW visible
13 Apr 5.9 00:10:04 18° E 00:11:14 19° E 00:15:27 10° NE visible
13 Apr 3.9 01:54:54 59° SW 01:56:04 74° W 02:02:24 10° N visible
13 Apr 5.8 03:39:52 10° W 03:42:46 13° WNW 03:45:40 10° NNW visible
14 Apr 5.1 00:37:46 33° ESE 00:38:34 34° E 00:44:09 10° NNE visible
14 Apr 4.5 02:22:36 37° WSW 02:23:59 42° WNW 02:29:57 10° N visible
15 Apr 4.2 01:05:27 58° ESE 01:06:06 62° E 01:12:18 10° NNE visible
15 Apr 5.2 02:50:17 21° W 02:52:07 24° WNW 02:57:07 10° NNW visible
15 Apr 5.9 23:48:17 18° E 23:49:00 18° E 23:53:06 10° NE visible
16 Apr 3.9 01:33:06 68° SW 01:33:49 76° W 01:40:08 10° N visible
16 Apr 5.8 03:17:57 11° W 03:20:29 14° WNW 03:23:29 10° NNW visible
17 Apr 5.1 00:15:55 33° E 00:16:20 33° E 00:21:51 10° NNE visible
17 Apr 4.5 02:00:45 40° W 02:01:43 43° WNW 02:07:41 10° N visible
18 Apr 4.2 00:43:34 59° ESE 00:43:51 60° E 00:50:01 10° NNE visible
18 Apr 5.2 02:28:24 23° W 02:29:51 25° WNW 02:34:53 10° NNW visible
18 Apr 5.9 23:26:21 18° E 23:26:47 18° E 23:30:46 10° NE visible
19 Apr 3.8 01:11:11 75° WSW 01:11:34 78° W 01:17:52 10° N visible
19 Apr 5.8 02:56:01 12° W 02:58:12 14° WNW 03:01:19 10° NNW visible
19 Apr 5.2 23:53:58 32° E 23:54:06 32° E 23:59:33 10° NNE visible
20 Apr 4.4 01:38:47 42° W 01:39:28 44° WNW 01:45:26 10° N visible
21 Apr 4.3 00:21:34 58° E 00:21:37 58° E 00:27:44 10° NNE visible
21 Apr 5.2 02:06:23 24° W 02:07:35 25° WNW 02:12:39 10° NNW visible
21 Apr 5.9 23:04:19 17° E 23:04:33 17° E 23:08:24 10° NE visible
